EW4993 Weather Reports


time (UTC)temp
C
wind
direction
speed
KPH
gust
KPH
rain 1hr
cm
rain 24hr
cm
rain mn
cm
humidity
%
barometer
mb
20260902141603 27 135 1.6 6.4 0.00 0.00 0.00 67 990.5
20260902140038 27 138 0.0 0.0 0.00 0.00 0.00 67 990.6
20260902134539 26 138 0.0 0.0 0.00 0.00 0.00 66 990.4
20260902133028 25 138 1.6 6.4 0.00 0.00 0.00 66 990.4
20260902131517 24 142 0.0 0.0 0.00 0.00 0.00 62 990.1
20260902130016 23 142 0.0 0.0 0.00 0.00 0.00 62 989.9
20260902124515 23 142 0.0 0.0 0.00 0.00 0.00 62 989.6
20260902123013 23 142 0.0 0.0 0.00 0.00 0.00 62 989.5
20260902121512 23 142 0.0 0.0 0.00 0.00 0.00 63 989.5
20260902120010 23 142 0.0 0.0 0.00 0.00 0.00 63 989.5
20260902114509 23 142 0.0 0.0 0.00 0.00 0.00 64 989.6
20260902113110 24 142 0.0 0.0 0.00 0.00 0.00 66 989.4
20260902111554 24 142 0.0 0.0 0.00 0.00 0.00 65 989.4
20260902110055 24 142 0.0 0.0 0.00 0.00 0.00 66 989.4
20260902104553 24 188 0.0 0.0 0.00 0.00 0.00 67 989.4
20260902103050 25 193 0.0 0.0 0.00 0.00 0.00 67 989.3
20260902101550 25 193 0.0 0.0 0.00 0.00 0.00 67 989.1
20260902100049 25 193 0.0 0.0 0.00 0.00 0.00 66 989.2
20260902094554 25 193 0.0 0.0 0.00 0.00 0.00 66 989.1
20260902093047 25 193 0.0 4.8 0.00 0.00 0.00 67 989.1
20260902091528 25 187 0.0 0.0 0.00 0.00 0.00 68 989.2
20260902090025 25 146 0.0 0.0 0.00 0.00 0.00 68 989.3
20260902084514 25 146 0.0 0.0 0.00 0.00 0.00 69 989.4
20260902083006 25 146 0.0 0.0 0.00 0.00 0.00 69 989.5
20260902081554 26 146 0.0 0.0 0.00 0.00 0.00 69 989.5
20260902080048 26 146 0.0 0.0 0.00 0.00 0.00 68 989.6
20260902074530 26 146 0.0 0.0 0.00 0.00 0.00 68 989.7
20260902073029 26 146 0.0 0.0 0.00 0.00 0.00 68 989.9
20260902071516 26 146 0.0 0.0 0.00 0.00 0.00 67 990.0
20260902070016 27 146 0.0 0.0 0.00 0.00 0.00 67 990.0
20260902064523 27 146 0.0 0.0 0.00 0.00 0.00 67 989.9
20260902063017 27 146 1.6 6.4 0.00 0.00 0.00 67 990.0
20260902061519 27 146 4.8 8.0 0.00 0.00 0.00 67 990.0
20260902060014 27 136 4.8 11.3 0.00 0.00 0.00 67 990.1
20260902054517 27 142 3.2 11.3 0.00 0.00 0.00 66 989.9
20260902053013 28 148 3.2 11.3 0.00 0.00 0.00 66 989.8
20260902051559 28 171 8.0 11.3 0.00 0.00 0.00 66 989.9
20260902050053 28 154 4.8 12.9 0.00 0.00 0.00 66 989.8
20260902044541 28 144 6.4 14.5 0.00 0.00 0.00 65 989.8
20260902043103 28 143 6.4 16.1 0.00 0.00 0.00 64 989.8
20260902041558 29 128 9.7 20.9 0.00 0.00 0.00 63 989.9
20260902040040 29 136 11.3 17.7 0.00 0.00 0.00 61 989.8
20260902034546 30 118 3.2 9.7 0.00 0.00 0.00 57 989.6
20260902033041 30 136 6.4 11.3 0.00 0.00 0.00 53 989.3
20260902031541 31 163 6.4 11.3 0.00 0.00 0.00 52 989.0
20260902030037 31 161 8.0 12.9 0.00 0.00 0.00 52 988.8
20260902024520 31 146 6.4 12.9 0.00 0.00 0.00 53 988.5
20260902023020 31 142 4.8 9.7 0.00 0.00 0.00 52 988.3
20260902021502 32 146 3.2 8.0 0.00 0.00 0.00 52 988.0
20260902020001 32 149 4.8 9.7 0.00 0.00 0.00 51 987.8
20260902014555 32 130 1.6 8.0 0.00 0.00 0.00 48 987.6
20260902013055 33 134 4.8 11.3 0.00 0.00 0.00 46 987.5
20260902011551 33 140 6.4 11.3 0.00 0.00 0.00 45 987.3
20260902010052 33 131 4.8 14.5 0.00 0.00 0.00 45 987.3
20260902004550 34 152 9.7 17.7 0.00 0.00 0.00 44 987.3
20260902003123 35 118 6.4 14.5 0.00 0.00 0.00 43 987.4
20260902001545 35 113 6.4 20.9 0.00 0.00 0.00 41 987.5
20260902000045 35 103 9.7 19.3 0.00 0.00 0.00 40 987.4
20260901234527 35 82 9.7 16.1 0.00 0.00 0.00 40 987.4
20260901233027 36 90 3.2 17.7 0.00 0.00 0.00 39 987.4
20260901231514 36 153 1.6 19.3 0.00 0.00 0.00 39 987.4
20260901230016 36 82 9.7 19.3 0.00 0.00 0.00 38 987.4
20260901224512 36 107 8.0 19.3 0.00 0.00 0.00 39 987.5
20260901223011 36 105 8.0 17.7 0.00 0.00 0.00 41 987.6
20260901221510 35 135 4.8 14.5 0.00 0.00 0.00 42 987.6
20260901220013 35 96 6.4 16.1 0.00 0.00 0.00 41 987.7
20260901214508 36 92 9.7 24.1 0.00 0.00 0.00 40 987.6
20260901213006 36 106 1.6 19.3 0.00 0.00 0.00 40 987.6
20260901211554 36 100 11.3 19.3 0.00 0.00 0.00 40 987.7
20260901210110 36 44 4.8 19.3 0.00 0.00 0.00 42 988.0
20260901204547 36 91 9.7 17.7 0.00 0.00 0.00 42 988.3
20260901203046 35 125 0.0 12.9 0.00 0.00 0.00 42 988.5
20260901201543 35 106 4.8 14.5 0.00 0.00 0.00 44 988.8
20260901200041 35 107 6.4 17.7 0.00 0.00 0.00 44 988.9
20260901194539 34 50 9.7 16.1 0.00 0.00 0.00 47 989.1
20260901193041 34 74 11.3 16.1 0.00 0.00 0.00 46 989.3
20260901191534 35 76 9.7 16.1 0.00 0.00 0.00 47 989.4
20260901190021 33 119 6.4 16.1 0.00 0.00 0.00 49 989.6
20260901184521 33 63 3.2 12.9 0.00 0.00 0.00 48 989.9
20260901183016 34 101 6.4 14.5 0.00 0.00 0.00 47 990.0
20260901181512 34 92 0.0 17.7 0.00 0.00 0.00 47 990.3
20260901180008 34 130 6.4 16.1 0.00 0.00 0.00 46 990.6
20260901174505 34 101 3.2 19.3 0.00 0.00 0.00 47 990.8
20260901173003 33 65 6.4 17.7 0.00 0.00 0.00 49 991.0
20260901171609 33 165 9.7 16.1 0.00 0.00 0.00 51 991.2
20260901170058 33 138 4.8 17.7 0.00 0.00 0.00 49 991.3
20260901164551 33 80 8.0 12.9 0.00 0.00 0.00 51 991.4
20260901163103 32 92 3.2 11.3 0.00 0.00 0.00 53 991.5
20260901161539 32 119 4.8 11.3 0.00 0.00 0.00 56 991.8
20260901160040 32 140 4.8 12.9 0.00 0.00 0.00 57 991.7
20260901154548 31 159 0.0 9.7 0.00 0.00 0.00 59 991.7
20260901153135 31 202 3.2 9.7 0.00 0.00 0.00 59 991.7
20260901151520 30 340 0.0 9.7 0.00 0.00 0.00 62 991.7
20260901150016 30 286 0.0 4.8 0.00 0.00 0.00 65 991.7
20260901144518 29 291 0.0 9.7 0.00 0.00 0.00 66 991.6
20260901143008 28 257 0.0 6.4 0.00 0.00 0.00 66 991.8